Location: Fort Wayne
(41.1310°N, 85.1290°W)
Time: 17:10:04
(UTC-04:00)

Helios 1B - Visible Passes

Search period start: 29 May 2016 00:00
Search period end: 08 June 2016 00:00
Orbit: 621 x 625 km, 98.1° (Epoch: 29 May)

Date Brightness Start Highest point End Pass type
(mag) Time Alt. Az. Time Alt. Az. Time Alt. Az.
29 May 6.6 00:12:04 17° ENE 00:12:24 18° ENE 00:15:18 10° NNE visible
29 May 5.7 01:49:17 36° WNW 01:49:17 36° WNW 01:52:21 10° NNW visible
30 May 6.1 00:30:21 26° ENE 00:30:22 26° ENE 00:33:59 10° NNE visible
30 May 6.3 02:07:35 24° WNW 02:07:35 24° WNW 02:10:09 10° NW visible
31 May 5.5 00:48:39 39° ENE 00:48:39 39° ENE 00:52:26 10° N visible
31 May 6.7 02:25:52 16° WNW 02:25:52 16° WNW 02:27:38 10° NW visible
01 Jun 5.0 01:06:56 58° NE 01:06:56 58° NE 01:10:44 10° N visible
01 Jun 7.1 02:44:09 10° WNW 02:44:09 10° WNW 02:44:19 10° WNW visible
02 Jun 4.9 01:25:14 62° NNW 01:25:14 62° NNW 01:28:54 10° NNW visible
03 Jun 6.7 00:06:18 15° ENE 00:06:58 15° ENE 00:09:29 10° NNE visible
03 Jun 5.4 01:43:31 43° WNW 01:43:31 43° WNW 01:46:55 10° NNW visible
04 Jun 6.2 00:24:36 23° ENE 00:24:54 23° ENE 00:28:19 10° NNE visible
04 Jun 6.0 02:01:49 29° WNW 02:01:49 29° WNW 02:04:46 10° NNW visible
05 Jun 5.6 00:42:53 34° ENE 00:42:53 34° ENE 00:46:49 10° N visible
05 Jun 6.5 02:20:07 19° WNW 02:20:07 19° WNW 02:22:23 10° NW visible
06 Jun 5.0 01:01:11 53° ENE 01:01:11 53° ENE 01:05:10 10° N visible
06 Jun 7.0 02:38:24 12° WNW 02:38:24 12° WNW 02:39:29 10° WNW visible
07 Jun 4.7 01:19:29 70° N 01:19:29 70° N 01:23:22 10° NNW visible
